This demonstration page uses our WeatherBlox Daily Observations layout. Learn more.

Left ArrowRight Arrow

Hourly Observations for December 22, 2021

Temp ( °F °C ) Dew Point ( °F °C ) Humidity (%) Winds ( mph kmh ) Pressure ( in mb ) Visibility ( mi km ) Precip ( " mm )
12:53 am 00:53 Clear 22 -5.6 18 -7.8 85 85 W 3 6 29.75 1007 10 16 0.00 0.00
1:53 am 01:53 Clear 21 -6.1 17 -8.3 85 85 SW 6 9 29.74 1007 10 16 0.00 0.00
2:53 am 02:53 Mostly Cloudy 26 -3.3 20 -6.7 78 78 NW 3 6 29.72 1007 10 16 0.00 0.00
3:53 am 03:53 Mostly Cloudy 27 -2.8 21 -6.1 78 78 W 6 9 29.72 1006 10 16 0.00 0.00
4:53 am 04:53 Mostly Cloudy 30 -1.1 23 -5 75 75 SSW 7 11 29.71 1006 10 16 0.00 0.00
6:53 am 06:53 Mostly Cloudy 20 -6.7 15 -9.4 81 81 E 5 7 29.72 1006 10 16 0.00 0.00
7:53 am 07:53 Cloudy 22 -5.6 18 -7.8 85 85 Calm 29.70 1006 10 16 0.00 0.00
8:53 am 08:53 Cloudy 38 3.3 29 -1.7 70 70 SW 8 13 29.67 1005 10 16 0.00 0.00
9:53 am 09:53 Cloudy 38 3.3 29 -1.7 70 70 WSW 8 13 29.65 1004 10 16 0.00 0.00
10:53 am 10:53 Cloudy 38 3.3 28 -2.2 68 68 WSW 10 17 29.66 1004 10 16 0.00 0.00
11:53 am 11:53 Mostly Sunny 39 3.9 28 -2.2 65 65 SW 21 33 29.61 1003 10 16 0.00 0.00
12:53 pm 12:53 Sunny 39 3.9 29 -1.7 67 67 SW 24 39 29.60 1002 10 16 0.00 0.00
1:53 pm 13:53 Sunny 41 5 30 -1.1 65 65 SSW 14 22 29.60 1002 10 16 0.00 0.00
2:53 pm 14:53 Sunny 39 3.9 30 -1.1 70 70 SSW 23 37 29.58 1002 10 16 0.00 0.00
3:53 pm 15:53 Sunny 41 5 28 -2.2 60 60 SW 15 24 29.59 1002 10 16 0.00 0.00
4:53 pm 16:53 Clear 36 2.2 28 -2.2 73 73 SW 14 22 29.59 1002 10 16 0.00 0.00
5:53 pm 17:53 Clear 32 0 27 -2.8 82 82 SW 12 19 29.62 1003 10 16 0.00 0.00
6:53 pm 18:53 Clear 34 1.1 27 -2.8 76 76 SW 17 28 29.61 1003 10 16 0.00 0.00
7:53 pm 19:53 Clear 35 1.7 26 -3.3 70 70 SW 20 31 29.61 1003 10 16 0.00 0.00
8:53 pm 20:53 Clear 36 2.2 25 -3.9 64 64 SSW 20 31 29.57 1002 10 16 0.00 0.00
9:53 pm 21:53 Clear 35 1.7 25 -3.9 67 67 SW 17 28 29.57 1001 10 16 0.00 0.00
10:53 pm 22:53 Clear 36 2.2 24 -4.4 62 62 SSW 14 22 29.57 1001 10 16 0.00 0.00
11:53 pm 23:53 Clear 33 0.6 24 -4.4 70 70 SW 10 17 29.57 1001 10 16 0.00 0.00

Powered by AerisWeather